Terminal Aerodrome Forecast
Issued by NWS St Louis, MO

Home | Current Version | Previous Version | Text Only | Print | Product List | Glossary On
Versions: 1 2 3 4 5 6 7 8 9 10 11 12 13 14 15 16 17 18 19 20 21 22 23
000
FTUS43 KLSX 300800 AAA
TAFSTL
TAF AMD
KSTL 300804Z 3008/3112 VRB04KT P6SM BKN090
     FM301600 VRB05KT P6SM SCT060=

USA.gov is the U.S. government's official web portal to all federal, state and local government web resources and services.